| time (UTC) | temp F | wind direction | speed knots | gust knots | rain 1hr in | rain 24hr in | rain mn in | humidity % | barometer mb |
| 20260505093348 | 63 | 58 | 0.9 | 4.3 | 0.00 | 0.00 | 0.00 | 47 | 1021.1 |
| 20260505092830 | 63 | 43 | 0.9 | 6.1 | 0.00 | 0.00 | 0.00 | 46 | 1021.0 |
| 20260505092350 | 64 | 18 | 2.6 | 6.1 | 0.00 | 0.00 | 0.00 | 45 | 1020.9 |
| 20260505091827 | 65 | 20 | 0.9 | 6.1 | 0.00 | 0.00 | 0.00 | 44 | 1020.8 |
| 20260505091326 | 66 | 349 | 1.7 | 6.1 | 0.00 | 0.00 | 0.00 | 44 | 1020.8 |
| 20260505090826 | 66 | 30 | 0.9 | 5.2 | 0.00 | 0.00 | 0.00 | 43 | 1020.7 |
| 20260505090324 | 66 | 61 | 1.7 | 4.3 | 0.00 | 0.00 | 0.00 | 43 | 1020.6 |
| 20260505085822 | 67 | 3 | 0.9 | 4.3 | 0.00 | 0.00 | 0.00 | 43 | 1020.6 |
| 20260505085321 | 67 | 237 | 0.9 | 7.8 | 0.00 | 0.00 | 0.00 | 43 | 1020.5 |
| 20260505084840 | 67 | 323 | 1.7 | 7.8 | 0.00 | 0.00 | 0.00 | 42 | 1020.5 |
| 20260505084317 | 68 | 326 | 3.5 | 6.1 | 0.00 | 0.00 | 0.00 | 41 | 1020.5 |
| 20260505083815 | 69 | 34 | 1.7 | 5.2 | 0.00 | 0.00 | 0.00 | 41 | 1020.5 |
| 20260505083334 | 69 | 349 | 0.9 | 7.0 | 0.00 | 0.00 | 0.00 | 41 | 1020.4 |
| 20260505082832 | 70 | 6 | 3.5 | 7.8 | 0.00 | 0.00 | 0.00 | 40 | 1020.3 |
| 20260505082331 | 71 | 58 | 3.5 | 7.8 | 0.00 | 0.00 | 0.00 | 37 | 1020.2 |
| 20260505081830 | 73 | 338 | 0.9 | 4.3 | 0.00 | 0.00 | 0.00 | 33 | 1020.2 |
| 20260505081328 | 72 | 20 | 0.0 | 4.3 | 0.00 | 0.00 | 0.00 | 27 | 1020.2 |
| 20260505080848 | 72 | 34 | 1.7 | 3.5 | 0.00 | 0.00 | 0.00 | 27 | 1020.1 |
| 20260505080324 | 72 | 51 | 1.7 | 3.5 | 0.00 | 0.00 | 0.00 | 27 | 1020.2 |
| 20260505075823 | 73 | 321 | 0.0 | 5.2 | 0.00 | 0.00 | 0.00 | 27 | 1020.2 |
| 20260505075327 | 72 | 321 | 0.9 | 5.2 | 0.00 | 0.00 | 0.00 | 28 | 1020.1 |
| 20260505074826 | 73 | 39 | 2.6 | 4.3 | 0.00 | 0.00 | 0.00 | 27 | 1020.1 |
| 20260505074323 | 74 | 342 | 0.9 | 2.6 | 0.00 | 0.00 | 0.00 | 28 | 1020.1 |
| 20260505073820 | 73 | 356 | 0.0 | 5.2 | 0.00 | 0.00 | 0.00 | 28 | 1020.0 |
| 20260505073320 | 73 | 44 | 2.6 | 5.2 | 0.00 | 0.00 | 0.00 | 28 | 1019.9 |
| 20260505072818 | 72 | 15 | 0.9 | 4.3 | 0.00 | 0.00 | 0.00 | 28 | 1019.8 |
| 20260505072316 | 73 | 68 | 1.7 | 4.3 | 0.00 | 0.00 | 0.00 | 27 | 1019.9 |
| 20260505071814 | 73 | 57 | 0.0 | 4.3 | 0.00 | 0.00 | 0.00 | 27 | 1019.9 |
| 20260505071332 | 72 | 31 | 0.9 | 5.2 | 0.00 | 0.00 | 0.00 | 28 | 1019.8 |
| 20260505070831 | 73 | 37 | 1.7 | 4.3 | 0.00 | 0.00 | 0.00 | 27 | 1019.8 |
| 20260505070330 | 74 | 348 | 0.0 | 2.6 | 0.00 | 0.00 | 0.00 | 27 | 1019.7 |
| 20260505065849 | 73 | 226 | 0.9 | 4.3 | 0.00 | 0.00 | 0.00 | 27 | 1019.7 |
| 20260505065346 | 72 | 322 | 0.9 | 6.1 | 0.00 | 0.00 | 0.00 | 28 | 1019.8 |
| 20260505064824 | 72 | 59 | 3.5 | 7.0 | 0.00 | 0.00 | 0.00 | 28 | 1019.7 |
| 20260505064322 | 71 | 53 | 2.6 | 7.0 | 0.00 | 0.00 | 0.00 | 29 | 1019.8 |
| 20260505063819 | 71 | 27 | 3.5 | 6.1 | 0.00 | 0.00 | 0.00 | 27 | 1019.8 |
| 20260505063319 | 71 | 281 | 1.7 | 5.2 | 0.00 | 0.00 | 0.00 | 28 | 1019.9 |
| 20260505062817 | 71 | 345 | 0.9 | 5.2 | 0.00 | 0.00 | 0.00 | 28 | 1019.9 |
| 20260505062336 | 71 | 33 | 1.7 | 5.2 | 0.00 | 0.00 | 0.00 | 28 | 1019.9 |
| 20260505061814 | 71 | 13 | 1.7 | 4.3 | 0.00 | 0.00 | 0.00 | 29 | 1020.0 |
| 20260505061312 | 72 | 37 | 1.7 | 4.3 | 0.00 | 0.00 | 0.00 | 27 | 1020.0 |
| 20260505060831 | 72 | 58 | 0.0 | 3.5 | 0.00 | 0.00 | 0.00 | 29 | 1020.0 |
| 20260505060351 | 71 | 265 | 1.7 | 5.2 | 0.00 | 0.00 | 0.00 | 29 | 1020.1 |
| 20260505055829 | 71 | 44 | 2.6 | 5.2 | 0.00 | 0.00 | 0.00 | 29 | 1020.1 |
| 20260505055328 | 71 | 11 | 1.7 | 5.2 | 0.00 | 0.00 | 0.00 | 30 | 1020.1 |
| 20260505054825 | 71 | 236 | 1.7 | 5.2 | 0.00 | 0.00 | 0.00 | 30 | 1020.2 |
| 20260505054345 | 70 | 360 | 0.9 | 5.2 | 0.00 | 0.00 | 0.00 | 31 | 1020.2 |
| 20260505053822 | 70 | 333 | 0.9 | 6.1 | 0.00 | 0.00 | 0.00 | 31 | 1020.3 |
| 20260505053342 | 70 | 16 | 2.6 | 6.1 | 0.00 | 0.00 | 0.00 | 30 | 1020.4 |
| 20260505052823 | 70 | 23 | 1.7 | 6.1 | 0.00 | 0.00 | 0.00 | 30 | 1020.6 |
| 20260505052342 | 70 | 233 | 2.6 | 8.7 | 0.00 | 0.00 | 0.00 | 29 | 1020.6 |
| 20260505051819 | 70 | 248 | 2.6 | 8.7 | 0.00 | 0.00 | 0.00 | 27 | 1020.6 |
| 20260505051317 | 70 | 233 | 0.9 | 4.3 | 0.00 | 0.00 | 0.00 | 27 | 1020.8 |
| 20260505050817 | 70 | 231 | 1.7 | 4.3 | 0.00 | 0.00 | 0.00 | 27 | 1020.9 |
| 20260505050316 | 70 | 209 | 1.7 | 5.2 | 0.00 | 0.00 | 0.00 | 29 | 1020.9 |
| 20260505041317 | 68 | 89 | 2.6 | 4.3 | 0.00 | 0.00 | 0.00 | 34 | 1021.8 |
| 20260505040816 | 68 | 215 | 1.7 | 4.3 | 0.00 | 0.00 | 0.00 | 31 | 1021.8 |
| 20260505040314 | 68 | 41 | 0.9 | 3.5 | 0.00 | 0.00 | 0.00 | 33 | 1021.9 |
| 20260505035854 | 66 | 41 | 0.0 | 5.2 | 0.00 | 0.00 | 0.00 | 36 | 1022.1 |
| 20260505035329 | 66 | 34 | 3.5 | 5.2 | 0.00 | 0.00 | 0.00 | 34 | 1022.1 |
| 20260505034828 | 66 | 219 | 0.9 | 5.2 | 0.00 | 0.00 | 0.00 | 34 | 1022.1 |
| 20260505034327 | 66 | 39 | 2.6 | 6.1 | 0.00 | 0.00 | 0.00 | 34 | 1022.3 |
| 20260505033826 | 66 | 35 | 3.5 | 6.1 | 0.00 | 0.00 | 0.00 | 34 | 1022.2 |
| 20260505033325 | 67 | 55 | 1.7 | 2.6 | 0.00 | 0.00 | 0.00 | 34 | 1022.5 |
| 20260505032823 | 68 | 258 | 0.0 | 4.3 | 0.00 | 0.00 | 0.00 | 36 | 1022.5 |
| 20260505032322 | 66 | 273 | 1.7 | 4.3 | 0.00 | 0.00 | 0.00 | 37 | 1022.5 |
| 20260505031819 | 65 | 219 | 1.7 | 4.3 | 0.00 | 0.00 | 0.00 | 35 | 1022.6 |
| 20260505031318 | 65 | 257 | 1.7 | 3.5 | 0.00 | 0.00 | 0.00 | 35 | 1022.6 |
| 20260505030820 | 65 | 220 | 0.9 | 4.3 | 0.00 | 0.00 | 0.00 | 36 | 1022.7 |
| 20260505025825 | 64 | 39 | 3.5 | 7.8 | 0.00 | 0.00 | 0.00 | 37 | 1022.8 |
| 20260505025323 | 64 | 263 | 1.7 | 7.0 | 0.00 | 0.00 | 0.00 | 37 | 1022.8 |
| 20260505024821 | 64 | 53 | 0.0 | 7.8 | 0.00 | 0.00 | 0.00 | 40 | 1023.0 |
| 20260505024341 | 65 | 3 | 0.9 | 6.1 | 0.00 | 0.00 | 0.00 | 37 | 1023.1 |
| 20260505023817 | 64 | 234 | 0.9 | 8.7 | 0.00 | 0.00 | 0.00 | 37 | 1023.0 |
| 20260505023316 | 63 | 234 | 0.9 | 8.7 | 0.00 | 0.00 | 0.00 | 37 | 1023.1 |
| 20260505022814 | 63 | 103 | 1.7 | 7.8 | 0.00 | 0.00 | 0.00 | 37 | 1023.1 |
| 20260505022312 | 62 | 248 | 0.9 | 7.8 | 0.00 | 0.00 | 0.00 | 39 | 1023.2 |
| 20260505021831 | 62 | 51 | 2.6 | 7.0 | 0.00 | 0.00 | 0.00 | 37 | 1023.2 |
| 20260505021328 | 62 | 87 | 4.3 | 8.7 | 0.00 | 0.00 | 0.00 | 37 | 1023.2 |
| 20260505020827 | 62 | 58 | 4.3 | 8.7 | 0.00 | 0.00 | 0.00 | 37 | 1023.3 |
| 20260505020326 | 62 | 36 | 1.7 | 7.0 | 0.00 | 0.00 | 0.00 | 37 | 1023.3 |
| 20260505015825 | 62 | 207 | 0.9 | 5.2 | 0.00 | 0.00 | 0.00 | 38 | 1023.5 |
| 20260505015324 | 62 | 262 | 1.7 | 5.2 | 0.00 | 0.00 | 0.00 | 38 | 1023.4 |
| 20260505014822 | 62 | 136 | 0.9 | 5.2 | 0.00 | 0.00 | 0.00 | 39 | 1023.4 |
| 20260505014321 | 61 | 235 | 0.9 | 5.2 | 0.00 | 0.00 | 0.00 | 40 | 1023.5 |
| 20260505013817 | 62 | 63 | 0.0 | 3.5 | 0.00 | 0.00 | 0.00 | 42 | 1023.5 |
| 20260505013316 | 61 | 271 | 0.9 | 2.6 | 0.00 | 0.00 | 0.00 | 43 | 1023.5 |
| 20260505012814 | 60 | 134 | 0.0 | 5.2 | 0.00 | 0.00 | 0.00 | 47 | 1023.6 |
| 20260505012312 | 60 | 194 | 3.5 | 5.2 | 0.00 | 0.00 | 0.00 | 45 | 1023.6 |
| 20260505011852 | 60 | 217 | 0.9 | 3.5 | 0.00 | 0.00 | 0.00 | 45 | 1023.6 |
| 20260505011330 | 59 | 240 | 0.9 | 3.5 | 0.00 | 0.00 | 0.00 | 48 | 1023.6 |
| 20260505010828 | 59 | 208 | 2.6 | 3.5 | 0.00 | 0.00 | 0.00 | 46 | 1023.7 |
| 20260505010327 | 59 | 283 | 0.0 | 3.5 | 0.00 | 0.00 | 0.00 | 48 | 1023.7 |
| 20260505005829 | 58 | 231 | 0.0 | 4.3 | 0.00 | 0.00 | 0.00 | 48 | 1023.7 |
| 20260505005327 | 58 | 216 | 0.9 | 4.3 | 0.00 | 0.00 | 0.00 | 50 | 1023.8 |
| 20260505004847 | 58 | 231 | 1.7 | 5.2 | 0.00 | 0.00 | 0.00 | 48 | 1023.7 |
| 20260505004323 | 58 | 193 | 1.7 | 3.5 | 0.00 | 0.00 | 0.00 | 50 | 1023.7 |
| 20260505003821 | 57 | 30 | 1.7 | 3.5 | 0.00 | 0.00 | 0.00 | 51 | 1023.8 |
| 20260505003319 | 56 | 234 | 0.9 | 3.5 | 0.00 | 0.00 | 0.00 | 53 | 1023.7 |
| 20260505002817 | 56 | 211 | 0.0 | 4.3 | 0.00 | 0.00 | 0.00 | 56 | 1023.7 |
| 20260505002316 | 56 | 185 | 1.7 | 4.3 | 0.00 | 0.00 | 0.00 | 55 | 1023.7 |
| 20260505001814 | 55 | 260 | 1.7 | 4.3 | 0.00 | 0.00 | 0.00 | 58 | 1023.8 |
| 20260505001331 | 55 | 226 | 1.7 | 4.3 | 0.00 | 0.00 | 0.00 | 59 | 1023.8 |
| 20260505000829 | 55 | 255 | 1.7 | 4.3 | 0.00 | 0.00 | 0.00 | 58 | 1023.8 |
| 20260505000327 | 55 | 3 | 0.0 | 4.3 | 0.00 | 0.00 | 0.00 | 61 | 1023.7 |
| 20260504235822 | 54 | 253 | 1.7 | 3.5 | 0.00 | 0.00 | 0.00 | 60 | 1023.6 |
| 20260504235321 | 54 | 211 | 0.9 | 3.5 | 0.00 | 0.00 | 0.00 | 61 | 1023.6 |
| 20260504234818 | 53 | 223 | 0.9 | 4.3 | 0.00 | 0.00 | 0.00 | 64 | 1023.5 |
| 20260504234316 | 52 | 266 | 1.7 | 3.5 | 0.00 | 0.00 | 0.00 | 64 | 1023.6 |
| 20260504233815 | 52 | 199 | 1.7 | 3.5 | 0.00 | 0.00 | 0.00 | 64 | 1023.6 |
| 20260504233314 | 52 | 221 | 1.7 | 4.3 | 0.00 | 0.00 | 0.00 | 63 | 1023.6 |
| 20260504232832 | 52 | 221 | 0.0 | 4.3 | 0.00 | 0.00 | 0.00 | 66 | 1023.7 |
| 20260504232353 | 51 | 276 | 0.0 | 3.5 | 0.00 | 0.00 | 0.00 | 67 | 1023.8 |
| 20260504231831 | 52 | 203 | 1.7 | 3.5 | 0.00 | 0.00 | 0.00 | 69 | 1023.7 |
| 20260504231330 | 51 | 218 | 0.0 | 1.7 | 0.00 | 0.00 | 0.00 | 71 | 1023.7 |
| 20260504230849 | 51 | 222 | 0.0 | 1.7 | 0.00 | 0.00 | 0.00 | 71 | 1023.7 |
| 20260504230325 | 50 | 306 | 0.0 | 3.5 | 0.00 | 0.00 | 0.00 | 72 | 1023.7 |
| 20260504225823 | 50 | 337 | 0.9 | 2.6 | 0.00 | 0.00 | 0.00 | 72 | 1023.6 |
| 20260504225342 | 49 | 190 | 0.0 | 2.6 | 0.00 | 0.00 | 0.00 | 72 | 1023.6 |
| 20260504224819 | 49 | 242 | 0.9 | 2.6 | 0.00 | 0.00 | 0.00 | 73 | 1023.5 |
| 20260504224318 | 49 | 192 | 0.9 | 2.6 | 0.00 | 0.00 | 0.00 | 73 | 1023.5 |
| 20260504223822 | 49 | 17 | 0.9 | 3.5 | 0.00 | 0.00 | 0.00 | 73 | 1023.5 |
| 20260504223320 | 49 | 278 | 0.0 | 3.5 | 0.00 | 0.00 | 0.00 | 74 | 1023.5 |
| 20260504222818 | 49 | 207 | 0.9 | 2.6 | 0.00 | 0.00 | 0.00 | 75 | 1023.4 |
| 20260504222317 | 48 | 235 | 0.0 | 2.6 | 0.00 | 0.00 | 0.00 | 74 | 1023.4 |
| 20260504221815 | 48 | 247 | 0.9 | 1.7 | 0.00 | 0.04 | 0.00 | 75 | 1023.3 |
| 20260504221314 | 48 | 261 | 0.9 | 2.6 | 0.00 | 0.04 | 0.00 | 75 | 1023.3 |
| 20260504220813 | 48 | 211 | 0.9 | 2.6 | 0.00 | 0.04 | 0.00 | 74 | 1023.3 |
| 20260504220312 | 49 | 100 | 0.0 | 0.0 | 0.00 | 0.04 | 0.00 | 74 | 1023.1 |
| 20260504215832 | 49 | 196 | 0.0 | 0.0 | 0.00 | 0.04 | 0.00 | 73 | 1023.0 |
| 20260504215329 | 49 | 206 | 0.0 | 0.0 | 0.00 | 0.04 | 0.00 | 73 | 1023.1 |
| 20260504214827 | 48 | 198 | 0.0 | 0.0 | 0.00 | 0.04 | 0.00 | 74 | 1023.0 |
| 20260504214325 | 48 | 247 | 0.0 | 0.0 | 0.00 | 0.04 | 0.00 | 75 | 1023.0 |
| 20260504213822 | 47 | 247 | 0.0 | 0.0 | 0.00 | 0.04 | 0.00 | 75 | 1022.9 |
| 20260504213320 | 47 | 216 | 0.0 | 0.0 | 0.00 | 0.04 | 0.00 | 74 | 1022.8 |
| 20260504212839 | 48 | 73 | 0.0 | 0.0 | 0.00 | 0.04 | 0.00 | 74 | 1022.7 |
| 20260504212315 | 47 | 72 | 0.0 | 0.0 | 0.00 | 0.04 | 0.00 | 77 | 1022.7 |
| 20260504211812 | 46 | 72 | 0.0 | 0.0 | 0.00 | 0.55 | 0.00 | 77 | 1022.6 |
| 20260504211332 | 46 | 74 | 0.0 | 0.0 | 0.00 | 0.55 | 0.00 | 78 | 1022.5 |
| 20260504210830 | 45 | 73 | 0.0 | 0.0 | 0.00 | 0.55 | 0.00 | 80 | 1022.4 |
| 20260504210328 | 45 | 73 | 0.0 | 0.0 | 0.00 | 0.55 | 0.00 | 79 | 1022.3 |
| 20260504205825 | 45 | 90 | 0.0 | 0.0 | 0.00 | 0.55 | 0.00 | 80 | 1022.2 |
| 20260504205324 | 44 | 90 | 0.0 | 0.0 | 0.00 | 0.55 | 0.00 | 81 | 1022.1 |
| 20260504204844 | 43 | 90 | 0.0 | 0.0 | 0.00 | 0.55 | 0.00 | 83 | 1021.9 |
| 20260504204342 | 42 | 89 | 0.0 | 0.0 | 0.00 | 0.55 | 0.00 | 85 | 1021.9 |
| 20260504203841 | 41 | 90 | 0.0 | 0.0 | 0.00 | 0.55 | 0.00 | 86 | 1021.7 |
| 20260504203317 | 41 | 89 | 0.0 | 0.0 | 0.00 | 0.55 | 0.00 | 86 | 1021.7 |
| 20260504202815 | 41 | 89 | 0.0 | 0.0 | 0.00 | 0.55 | 0.00 | 85 | 1021.7 |
| 20260504202312 | 41 | 90 | 0.0 | 0.0 | 0.00 | 0.55 | 0.00 | 85 | 1021.7 |
| 20260504201852 | 41 | 90 | 0.0 | 0.0 | 0.00 | 0.94 | 0.00 | 85 | 1021.6 |
| 20260504201312 | 41 | 89 | 0.0 | 0.0 | 0.00 | 0.94 | 0.00 | 86 | 1021.5 |
| 20260504200831 | 40 | 105 | 0.0 | 0.0 | 0.00 | 0.94 | 0.00 | 86 | 1021.5 |
| 20260504200330 | 40 | 197 | 0.0 | 0.0 | 0.00 | 0.94 | 0.00 | 85 | 1021.4 |
| 20260504195829 | 40 | 197 | 0.0 | 0.0 | 0.00 | 0.94 | 0.00 | 85 | 1021.5 |
| 20260504195327 | 41 | 197 | 0.0 | 0.0 | 0.00 | 0.94 | 0.00 | 85 | 1021.1 |
| 20260504194826 | 40 | 197 | 0.0 | 0.0 | 0.00 | 0.94 | 0.00 | 85 | 1021.1 |
| 20260504194322 | 41 | 198 | 0.0 | 0.0 | 0.00 | 0.94 | 0.00 | 84 | 1020.9 |
| 20260504193819 | 41 | 198 | 0.0 | 0.0 | 0.00 | 0.94 | 0.00 | 84 | 1020.9 |
| 20260504193317 | 41 | 198 | 0.0 | 0.0 | 0.00 | 0.94 | 0.00 | 84 | 1020.8 |
| 20260504192815 | 41 | 198 | 0.0 | 0.0 | 0.00 | 0.94 | 0.00 | 84 | 1020.8 |
| 20260504192313 | 42 | 60 | 0.0 | 0.0 | 0.00 | 0.94 | 0.00 | 85 | 1020.6 |
| 20260504191832 | 42 | 59 | 0.0 | 0.0 | 0.00 | 0.94 | 0.00 | 86 | 1020.6 |
| 20260504191352 | 42 | 59 | 0.0 | 0.0 | 0.00 | 0.94 | 0.00 | 87 | 1020.5 |
| 20260504190829 | 42 | 59 | 0.0 | 0.0 | 0.00 | 0.94 | 0.00 | 88 | 1020.4 |
| 20260504190325 | 42 | 59 | 0.0 | 0.0 | 0.00 | 0.94 | 0.00 | 87 | 1020.4 |
| 20260504185823 | 42 | 58 | 0.0 | 0.0 | 0.00 | 0.94 | 0.00 | 86 | 1020.3 |
| 20260504185344 | 42 | 58 | 0.0 | 0.0 | 0.00 | 0.94 | 0.00 | 87 | 1020.2 |
| 20260504184819 | 42 | 58 | 0.0 | 0.0 | 0.00 | 0.94 | 0.00 | 86 | 1020.3 |
| 20260504184338 | 42 | 58 | 0.0 | 0.0 | 0.00 | 0.94 | 0.00 | 86 | 1020.2 |
| 20260504183814 | 42 | 58 | 0.0 | 0.0 | 0.00 | 0.94 | 0.00 | 86 | 1020.1 |
| 20260504183312 | 42 | 58 | 0.0 | 0.0 | 0.00 | 0.94 | 0.00 | 85 | 1020.1 |
| 20260504182832 | 42 | 58 | 0.0 | 0.0 | 0.00 | 0.94 | 0.00 | 85 | 1020.0 |
| 20260504182330 | 42 | 58 | 0.0 | 0.0 | 0.00 | 0.94 | 0.00 | 85 | 1019.9 |
| 20260504181828 | 42 | 58 | 0.0 | 0.0 | 0.00 | 0.98 | 0.00 | 83 | 1019.8 |
| 20260504181326 | 42 | 58 | 0.0 | 0.0 | 0.00 | 0.98 | 0.00 | 82 | 1019.7 |
| 20260504180846 | 43 | 58 | 0.0 | 0.0 | 0.00 | 0.98 | 0.00 | 82 | 1019.6 |
| 20260504180327 | 43 | 58 | 0.0 | 0.0 | 0.00 | 0.98 | 0.00 | 82 | 1019.6 |
| 20260504175826 | 44 | 58 | 0.0 | 0.0 | 0.00 | 0.98 | 0.00 | 81 | 1019.5 |
| 20260504175346 | 44 | 58 | 0.0 | 0.0 | 0.00 | 0.98 | 0.00 | 80 | 1019.4 |
| 20260504174823 | 44 | 58 | 0.0 | 0.9 | 0.00 | 0.98 | 0.00 | 79 | 1019.3 |
| 20260504174321 | 44 | 58 | 0.0 | 0.9 | 0.00 | 0.98 | 0.00 | 78 | 1019.2 |
| 20260504173819 | 45 | 58 | 0.0 | 0.9 | 0.00 | 0.98 | 0.00 | 77 | 1019.2 |
| 20260504173317 | 45 | 55 | 0.0 | 0.0 | 0.00 | 0.98 | 0.00 | 76 | 1019.2 |
| 20260504172814 | 45 | 55 | 0.0 | 0.9 | 0.00 | 0.98 | 0.00 | 76 | 1019.1 |
| 20260504172334 | 45 | 55 | 0.0 | 0.9 | 0.00 | 0.98 | 0.00 | 75 | 1019.1 |
| 20260504171832 | 46 | 55 | 0.0 | 0.9 | 0.00 | 1.38 | 0.00 | 75 | 1019.1 |
| 20260504171332 | 46 | 55 | 0.0 | 2.6 | 0.00 | 1.38 | 0.00 | 74 | 1019.0 |
| 20260504170831 | 46 | 55 | 0.9 | 2.6 | 0.00 | 1.38 | 0.00 | 74 | 1019.0 |
| 20260504170330 | 46 | 56 | 0.0 | 3.5 | 0.00 | 1.38 | 0.00 | 74 | 1018.9 |
| 20260504160315 | 47 | 86 | 3.5 | 8.7 | 0.00 | 1.50 | 0.00 | 76 | 1018.4 |
| 20260504150845 | 46 | 49 | 4.3 | 12.2 | 0.00 | 1.50 | 0.30 | 78 | 1018.3 |
| 20260504150322 | 46 | 330 | 5.2 | 10.4 | 0.00 | 1.50 | 0.30 | 78 | 1018.3 |
| 20260504141327 | 47 | 53 | 7.0 | 15.6 | 0.00 | 1.50 | 0.30 | 79 | 1017.4 |
| 20260504140825 | 47 | 116 | 6.1 | 15.6 | 0.00 | 1.50 | 0.30 | 79 | 1017.2 |
| 20260504140327 | 46 | 42 | 7.8 | 18.2 | 0.00 | 1.50 | 0.30 | 79 | 1017.0 |
| 20260504130347 | 49 | 48 | 9.6 | 25.2 | 0.00 | 1.54 | 0.30 | 78 | 1015.9 |
| 20260504110317 | 53 | 55 | 8.7 | 21.7 | 0.00 | 1.65 | 0.30 | 76 | 1011.5 |
| 20260504100317 | 55 | 46 | 6.1 | 17.4 | 0.00 | 1.81 | 0.30 | 73 | 1009.8 |